User: anonymous   Login
Location: Bonn
(50.7330°N, 7.1000°E)
Time: 15:24:50
(UTC+02:00)
Language:

Iridium 84 - Orbit

View from above orbital plane
View from above orbital plane
View from above satellite
View from above satellite

Ground track
Ground track

The orbit data is extracted from the following two-line orbital elements,

1 25530U 98066D   14297.43235405  .00000445  00000-0  15188-3 0  8407
2 25530 086.3991 034.1227 0002258 111.6798 248.4638 14.34211223838436
Epoch (UTC): 24 October 2014 10:22:35
Eccentricity: 0.0002258
inclination: 86.3991°
perigee height: 776 km
apogee height: 779 km
right ascension of ascending node: 34.1227°
argument of perigee: 111.6798°
revolutions per day: 14.34211223
mean anomaly at epoch: 248.4638°
orbit number at epoch: 83843

The dashed part of the orbit path shows where the satellite is in the earth's shadow,  

DLR